Regional Weather Roundup
Issued by NWS

Home | Current Version | Previous Version | Graphics & Text | Print | Product List | Glossary On
Versions: 1 2 3 4 5 6 7 8 9 10 11 12 13 14 15 16 17 18 19 20 21 22 23 24 25 26 27 28 29 30 31 32 33 34 35 36 37 38 39 40 41 42 43 44 45 46 47 48 49 50
000
ASUS43 KIND 291610
RWRIN

WEATHER ROUNDUP FOR INDIANA
NATIONAL WEATHER SERVICE INDIANAPOLIS IN
1200 PM EDT MON MAY 29 2017

NOTE: "FAIR" INDICATES FEW OR NO CLOUDS BELOW 12,000 FEET WITH NO
SIGNIFICANT WEATHER AND/OR OBSTRUCTIONS TO VISIBILITY.

* - STATION DOES NOT REPORT WEATHER SUCH AS PRECIPITATION OR FOG.

+ - STATION NOT QUALITY CONTROLLED BY THE NATIONAL WEATHER SERVICE.
    USE DATA WITH CAUTION...ESPECIALLY DEWPOINT AND RELATIVE
    HUMIDITY OBSERVATIONS.

INZ001>003-010>013-019-020-291700-
NORTHWEST INDIANA

CITY           SKY/WX    TMP DP  RH WIND       PRES   REMARKS
GARY /AIRPORT/ MOSUNNY   75  41  29 W9        29.84R
KNOX *+        SUNNY     75  37  25 W12       29.83S
LA PORTE +     SUNNY     74  47  38 W10G20    29.83F
MICHIGAN CITY+ MOSUNNY   75  46  35 NW13G18   29.83S
MONTICELLO +   SUNNY     76  49  38 W12G17    29.86R
RENSSELAER +   SUNNY     77  37  24 W13       29.86S
VALPARAISO     SUNNY     77  49  37 W17       29.84S

$$

LMZ046-743>745-291700-
SOUTHERN LAKE MICHIGAN

STATION/POSITION TIME  TEMP    WIND        PRES    WAVE
                       AIR SEA DIR/SP/G            HT
                 (UTC) (F)     (DEG/KT/KT) (MB)    (FT)
BURNS HARBOR     1540   66     270/ 11/ 13 1010.8R
MICHIGAN CITY    1540   65     250/ 13/ 14   N/A
5NW MICH CITY    1600   63 56  270/ 10/ 10   N/A     1

$$

INZ004-005-014>016-021>024-291700-
NORTH CENTRAL INDIANA

CITY           SKY/WX    TMP DP  RH WIND       PRES   REMARKS
ELKHART        SUNNY     75  50  41 W14G20    29.83R
GOSHEN         SUNNY     74  48  39 W14G22    29.83S
LOGANSPORT +   SUNNY     73  54  49 W9        29.87S
PERU/GRISSOM   SUNNY     75  53  46 SW10      29.86S
ROCHESTER +    SUNNY     77  50  38 W9G17     29.86R
SOUTH BEND     SUNNY     74  47  38 W10       29.83R
WARSAW +       SUNNY     73  52  46 W12G21    29.85R

$$

INZ006>009-017-018-025>027-291700-
NORTHEAST INDIANA

CITY           SKY/WX    TMP DP  RH WIND       PRES   REMARKS
ANGOLA *+      SUNNY     75  52  43 W12       29.83R
AUBURN +       SUNNY     73  55  53 W9        29.85S
FORT WAYNE     MOSUNNY   74  58  57 SW13      29.86R
HUNTINGTON +   SUNNY    N/A N/A N/A SW7       29.86S
KENDALLVILLE + SUNNY     76  52  43 W13       29.84S

$$

INZ028-029-035-036-043>045-051>053-291700-
WEST CENTRAL INDIANA

CITY           SKY/WX    TMP DP  RH WIND       PRES   REMARKS
CRAWFORDSVL +  SUNNY    -17 -28  58 S10       29.90R WCI -38
GREENCASTLE +  SUNNY     73  57  56 CALM      29.93R
LAFAYETTE      SUNNY     75  54  47 W10       29.87R
TERRE HAUTE    SUNNY     77  52  41 W6        29.92R

$$

INZ030>032-037>040-046>048-054>057-064-065-291700-
CENTRAL INDIANA

CITY           SKY/WX    TMP DP  RH WIND       PRES   REMARKS
CP ATTERBURY + SUNNY     77  59  53 SW12      29.93R
COLUMBUS       SUNNY     75  54  46 SW9       29.92F
FISHERS *+     SUNNY     75  61  60 SW7       29.91R
FRANKFORT +    CLOUDY    77  59  55 SW12      29.90R
GREENWOOD *+   SUNNY     74  57  55 W6        29.93R
INDIANAPOLIS   MOSUNNY   76  54  46 W9        29.91R
-EAGLE CREEK   SUNNY     76  57  51 SW7       29.91R
KOKOMO +       SUNNY     75  52  44 W10       29.89R
MARION +       SUNNY     73  54  49 W10       29.89S
MT COMFORT *+    N/A    N/A N/A N/A MISG        N/A
SHELBYVILLE    SUNNY     77  57  50 W12       29.91R
ZIONSVILLE +   SUNNY     74  56  52 SW12      29.91S

$$

INZ033-034-041-042-049-050-058-059-291700-
EAST CENTRAL INDIANA

CITY           SKY/WX    TMP DP  RH WIND       PRES   REMARKS
MUNCIE         SUNNY     76  55  48 SW9       29.89R
RICHMOND +     SUNNY     73  57  56 W13       29.93S

$$

INZ060-061-067>069-081>083-085>088-291700-
SOUTHWEST INDIANA

CITY           SKY/WX    TMP DP  RH WIND       PRES   REMARKS
EVANSVILLE     SUNNY     81  61  50 SW9       29.97R
HUNTINGBURG *+ SUNNY     76  63  64 SW7       29.97R
WASHINGTON +   SUNNY     78  53  41 SW8       29.95R

$$

INZ062-063-066-070>080-084-089>092-291700-
SOUTH CENTRAL AND SOUTHEAST INDIANA

CITY           SKY/WX    TMP DP  RH WIND       PRES   REMARKS
BEDFORD +      SUNNY     77  54  44 S6        29.94R
BLOOMINGTON    SUNNY     78  52  40 W12       29.94R
MADISON *+     SUNNY     79  55  44 SW9       29.98R
NORTH VERNON + SUNNY     73  61  64 S8G16     29.95S
SEYMOUR +      SUNNY     79  59  50 SW12      29.94S

$$





USA.gov is the U.S. government's official web portal to all federal, state and local government web resources and services.